www.pogodaiklimat.ru
ПОГОДА в Ларами
Время
и дата
15:32 29.01
15:48 29.01
15:53 29.01
16:10 29.01
16:22 29.01
16:37 29.01
16:43 29.01
16:53 29.01
17:04 29.01
17:53 29.01
18:53 29.01
19:53 29.01
20:22 29.01
20:50 29.01
20:53 29.01
21:17 29.01
21:25 29.01
21:53 29.01
22:53 29.01
23:53 29.01
00:53 30.01
01:53 30.01
02:53 30.01
03:53 30.01
04:53 30.01
05:53 30.01
06:53 30.01
07:53 30.01
08:53 30.01
09:53 30.01
10:53 30.01
11:53 30.01
12:53 30.01
13:53 30.01
14:53 30.01
15:53 30.01
16:53 30.01
17:53 30.01
18:53 30.01
19:53 30.01
20:53 30.01
21:53 30.01
22:53 30.01
23:53 30.01
00:01 31.01
00:53 31.01
01:53 31.01
02:53 31.01
Ветер
(напр.,м/с)
Видим. Явления Облачность Т
(С)
Тd
(С)
f
(%)
Тe
(С)
Тes
(С)
Комфортность P
(гПа)
Po
(гПа)
Тmin
(С)
Tmax
(С)
R
(мм)
R24
(мм)
S
(см)
ЮВ 5 1 км слабый снег ?/? -18.9 -22.2 75 -29 -29 770.8
ЮВ 3 800 м снег ?/? -19.0 -22.0 77 -26 -26 771.0
ЮЗ 3 1 км слабый снег ?/? -19.4 -22.2 78 -27 -27 1020.3 771.0
З 4 2 км слабый снег ?/? -20.0 -22.8 78 -29 -29 771.0
З 4 1 км слабый снег ?/? -20.0 -22.8 78 -29 -29 771.0
Ю 5 800 м снег ?/? -19.4 -22.2 78 -29 -29 771.0
Ю 5 1 км слабый снег ?/? -20.0 -22.8 78 -30 -30 771.0
ЮЗ 4 1 км слабый снег, дымка ?/? -20.6 -22.8 82 -30 -30 1021.1 771.3 -20.6 -16.7 1.5
ЮЗ 3 2 км слабый снег 10/10 690 m
[Ns]
-20.6 -23.3 79 -28 -28 771.3
З 3 3 км слабый снег, дымка 10/10 570 m
[Ns]
-21.1 -23.3 82 -29 -29 1021.8 771.6
СЗ 4 2 км слабый снег 10/10 480 m
[Ns]
-21.1 -23.9 78 -30 -30 1022.8 771.8
СЗ 3 2 км слабый снег 10/10 450 m
[Ns]
-22.2 -25.0 78 -30 -30 1024.0 772.1 0.8
ЮВ 6 2 км слабый снег 10/10 390 m
[Ns]
-21.7 -25.0 75 -33 -33 опасность
обморожения
772.1
ЮВ 6 2 км слабый снег 10/10 570 m
[Ns]
-22.0 -25.0 77 -33 -33 опасность
обморожения
772.1
ЮВ 8 3 км слабый снег 10/10 630 m
[Ns]
-21.7 -25.0 75 -35 -35 опасность
обморожения
1023.5 772.1
ЮВ 8 4 км слабый снег 10/10 1020 m
[Ns]
-21.7 -25.0 75 -35 -35 опасность
обморожения
772.3
ЮВ 8 5 км слабый снег 10/10 1140 m
[Ns]
-21.7 -25.6 71 -35 -35 опасность
обморожения
772.3
ЮВ 7 8 км слабый снег 10/8 1410 m
[Ac Ns]
-21.7 -25.6 71 -34 -34 опасность
обморожения
1023.5 772.1
ЮВ 8 11 км неопределенные осадки 10/8 1320 m
[Ac Cb]
-21.1 -26.1 64 -34 -34 опасность
обморожения
1023.0 772.1 -22.2 -20.6 0.8
ЮВ 6 16 км 10/10 1950 м -22.2 -26.7 67 -34 -34 опасность
обморожения
1023.3 771.8
ЮВ 6 16 км 10/0 2100 m
[Ac]
-22.8 -26.1 74 -34 -34 опасность
обморожения
1022.6 771.3
Ю 4 14 км слабый снег 10/8 1470 m
[Ac Ns]
-22.8 -25.6 78 -32 -32 опасность
обморожения
1022.5 771.0
Ю 2 5 км слабый снег 10/10 1380 m
[Ns]
-22.2 -25.0 78 -28 -28 1022.5 771.0
В 2 16 км 10/10 1950 м -22.2 -25.0 78 -28 -28 1022.4 770.8
СВ 2 16 км 10/0 2400 m
[Ac]
-22.2 -25.0 78 -28 -28 1022.6 770.8 -22.8 -21.1 2.8
С 3 16 км 10/0 3300 m
[Ac]
-22.8 -25.6 78 -31 -31 опасность
обморожения
1023.2 770.8
С 4 16 км 8/0 2100 m
[Ac]
-23.3 -26.1 78 -33 -33 опасность
обморожения
1023.8 771.0
С 4 16 км 10/0 2100 m
[Ac]
-23.9 -26.7 78 -34 -34 опасность
обморожения
1025.4 771.8
С 2 16 км 2/0 2400 m
[Ac]
-22.8 -26.7 70 -29 -29 1026.0 772.6
14 км ясно -20.0 -25.0 64 -20 -17 1025.0 772.6
СВ 4 16 км ясно -19.4 -25.0 61 -28 -26 1024.9 772.8 -23.9 -18.9
СВ 5 16 км ясно -20.0 -24.4 68 -30 -27 1025.1 772.6
С 6 16 км ясно -19.4 -24.4 64 -30 -28 1024.6 772.1
СВ 4 16 км ясно -20.0 -24.4 68 -29 -25 1024.7 772.1
СВ 5 16 км ясно -20.6 -25.0 68 -31 -29 опасность
обморожения
1025.5 772.6
СВ 3 16 км ясно -20.6 -25.0 68 -28 -27 1026.2 773.1
СВ 3 16 км ясно -22.8 -26.1 74 -31 -30 опасность
обморожения
1027.6 773.6 -22.8 -19.4
СВ 4 16 км ясно -23.9 -26.1 82 -34 -34 опасность
обморожения
1029.0 774.1
С 2 16 км 2/0 3600 m
[Ac]
-24.4 -26.7 81 -31 -31 опасность
обморожения
1030.0 774.7
С 2 16 км ясно -28.3 -29.4 90 -36 -36 опасность
обморожения
1031.9 774.9
З 2 16 км ясно -28.3 -31.1 77 -36 -36 опасность
обморожения
1031.8 774.9
ЮЗ 2 16 км ясно -29.4 -31.7 80 -37 -37 опасность
обморожения
1031.4 775.2
Ю 2 16 км ясно -32.2 -34.4 81 -40 -40 опасность
обморожения
1031.9 775.2 -32.2 -22.8
Ю 2 3 км дымка ясно -28.9 -30.6 85 -36 -36 опасность
обморожения
1030.5 774.7
Ю 3 5 км дымка ясно -29.4 -31.1 85 -39 -39 опасность
обморожения
774.4
Ю 4 16 км ясно -28.3 -30.6 81 -39 -39 опасность
обморожения
1029.7 774.4
штиль 0 16 км ясно -30.0 -32.2 81 -30 -30 1030.6 774.4
С 3 16 км ясно -28.9 -31.1 81 -38 -38 опасность
обморожения
1030.4 774.7
Местоположение метеостанции Laramie Regional Airport: широта 41.3165 долгота -105.6729 высота над уровнем моря 2216 м.
В архиве по умолчанию представлена погода в Ларами за последние 1-2 суток. Обновление информации о фактической погоде в базе происходит ежечасно! Архивные данные за месяц целиком и за предыдущие месяцы Вы можете получить, выбрав интересующий диапазон дат из раскрывающегося списка и нажав кнопку "Ввод!".
Внимание! Архив погоды МЕТАР в базе сайта по станциям, не включенным в климатический монитор, хранится не более 60 дней. Нет смысла пытаться выбрать более раннюю дату.
*Определитесь, кто Вы:
Внимание! Время в таблицах - местное (без учета летнего времени). Для получения всемирного времени необходимо вычесть поправку, которая равна -7 ч.
Смотрите также архив погоды в соседних городах и на ближайших метеорологических станциях:
Партнеры нашего сайта:      
Пояснения к столбцам:
  • Ветер - указаны скорость ветра в м/с - средняя за 10 мин, порывы в срок и между сроками (в фигурных скобках) и направление, откуда дует ветер: С - северный,
  • СВ - северо-восточный, В - восточный, ЮВ - юго-восточный, Ю - южный, ЮЗ - юго-западный, З - западный, СЗ - северо-западный.
  • Видимость - горизонтальная дальность видимости в метрах или километрах. При видимости от 1 до 10 км при отсутствии осадков обычно наблюдается дымка, при ухудшении видимости до 1 км и менее - туман. В сухую погоду видимость может ухудшаться дымом, пылью или мглою.
  • Явления - указаны атмосферные явления, наблюдавшиеся в срок или в последний час перед сроком; фигурными скобками обозначены явления, наблюдавшиеся между сроками (за 1-3 часа до срока); квадратными скобками обозначены град или гололедные отложения с указанием их диаметра в мм.
  • Облачность - указаны через наклонную черту общая и нижняя облачность в баллах и высота нижней границы облаков в метрах; квадратными скобками обозначены формы облаков: Ci - перистые, Cs - перисто-слоистые, Cc - перисто-кучевые, Ac - высококучевые, As - высокослоистые, Sc - слоисто-кучевые, Ns - слоисто-дождевые, Cu - кучевые, Cb - кучево-дождевые. Подробнее классификацию облаков см. в Атласе облаков (PDF).
  • T - Температура воздуха - температура, измеренная на высоте 2 м над землей.
  • Td - Температура точки росы - температура, при понижении до которой содержащийся в воздухе водяной пар достигнет насыщения.
  • f - Относительная влажность воздуха - влажноcть воздуха, измеренная на высоте 2 м над землей.
  • Te - Эффективная температура - температура, которую ощущает одетый по сезону человек в тени. Характеристика душности погоды. При расчете учитывается влияние влажности воздуха и скорости ветра на теплоощущения человека.
  • Tes - Эффективная температура на солнце - температура, которую ощущает человек, с поправкой на солнечный нагрев. Характеристика знойности погоды. Зависит от высоты солнца над горизонтом, облачности и скорости ветра. Ночью, в пасмурную погоду, а также при ветре 12 м/с и более поправка равна нулю.
  • P - Атмосферное давление - приведенное к уровню моря атмосферное давление.
  • Po - Атмосферное давление - измеренное на уровне метеостанции атмосферное давление.
  • Tmin - Минимальная температура - минимум температуры воздуха на высоте 2 м над землей.
  • Tmax - Максимальная температура - максимум температуры воздуха на высоте 2 м над землей.
  • R - Количество осадков - Количество выпавших осадков за период времени, мм. При наведении курсора мыши на число - период времени, за который выпало указанное количество осадков.
  • R24 - Количество осадков - Количество выпавших осадков за 24 часа, мм.
  • S - Снежный покров - Высота снежного покрова, см. При наведении курсора мыши на число - состояние снежного покрова и степень покрытия местности в баллах.